Wind_Speed
30 27 28 22 23 22 22 23 21 19 16 14 12 10 9 9 9 9 7 7 6 4 7 5 6 7 6 10 5 10 6 2 3 2 4 4 1 4 2 4 5 7 6 4 3 3 6 2 5 5 9 17 14 13
32 29 25 24 23 21 21 22 22 20 17 15 13 11 10 10 10 8 4 6 6 5 6 10 9 11 10 6 5 14 2 6 9 3 3 2 2 0 1 3 5 4 7 4 8 5 14 14 10 6 7 6 7 7
20 33 27 25 24 19 20 21 21 21 19 16 14 12 11 10 10 10 8 9 6 5 5 5 4 9 8 10 11 6 4 6 7 2 7 3 3 5 4 5 8 6 12 5 7 7 15 20 10 6 7 5 5 4
6 17 30 27 23 22 19 20 21 20 19 17 15 13 12 10 9 9 9 10 7 5 4 4 7 8 11 10 10 8 7 10 8 5 4 3 3 10 4 7 7 10 12 10 13 19 17 6 6 11 8 6 3 3
10 9 11 29 23 21 21 19 20 19 18 16 15 13 12 10 9 9 9 10 10 2 3 2 5 9 11 13 9 6 7 6 4 4 3 3 4 1 3 3 8 13 13 9 7 1 2 2 4 2 1 2 4 7
11 11 7 6 18 27 24 20 19 19 19 16 15 14 13 11 10 5 3 8 9 7 3 2 2 3 8 7 6 7 8 8 5 5 4 5 5 5 4 4 7 9 9 5 5 3 5 1 1 2 0 4 7 12
8 8 8 3 6 14 26 24 22 19 18 17 15 12 12 12 12 7 3 4 12 9 3 2 2 1 7 6 5 6 10 5 5 4 5 6 8 6 2 6 12 6 4 2 5 4 3 3 3 3 4 8 12 15
7 8 7 6 5 6 12 21 26 24 19 17 15 15 14 13 12 8 5 4 12 6 4 3 2 2 6 4 4 5 4 6 5 4 3 4 4 4 4 8 7 6 5 5 4 2 2 4 3 3 7 11 15 18
5 6 7 6 2 3 4 13 23 31 26 21 19 16 15 16 13 16 12 7 10 4 3 4 5 4 7 4 4 4 4 2 3 3 4 5 3 5 6 8 10 11 7 6 6 6 4 1 3 7 11 14 16 18
3 3 4 4 5 3 4 6 14 29 32 27 23 14 10 11 14 14 11 6 6 7 8 7 6 4 7 6 4 5 3 1 2 2 3 2 3 6 6 6 8 11 9 11 8 3 1 5 8 11 13 15 17 18
2 3 2 3 4 4 8 5 8 19 31 35 18 10 11 24 18 9 6 6 6 2 6 7 12 5 7 4 3 5 3 3 3 3 3 2 3 8 12 12 12 13 11 6 3 1 5 8 11 14 15 15 16 18
2 3 3 4 5 4 8 3 7 17 15 15 14 17 19 8 4 3 3 4 4 4 6 6 4 5 7 5 4 4 3 2 3 5 2 3 2 11 14 14 12 10 8 4 2 5 9 12 13 14 15 17 17 22
1 2 2 6 6 5 6 5 9 14 22 18 4 7 4 1 3 6 8 3 4 8 9 7 4 5 5 4 4 3 4 3 2 2 3 0 8 12 13 12 10 8 7 5 6 10 13 14 15 17 19 21 22 24
2 2 3 4 3 4 5 5 6 12 8 3 3 3 1 3 0 1 3 4 4 9 14 15 6 3 3 2 2 3 2 2 3 3 4 2 9 12 11 9 8 7 9 11 17 17 17 19 18 18 20 20 22 25
4 3 2 5 1 5 4 6 4 3 4 3 3 2 2 2 5 5 8 7 10 15 12 9 6 3 2 2 0 3 4 3 4 2 2 5 10 11 9 6 5 8 12 17 15 17 20 19 20 22 20 20 23 27
5 7 5 6 3 7 9 11 10 4 4 3 3 3 4 5 4 6 8 10 10 9 9 6 3 1 2 1 2 3 1 3 2 2 4 9 10 8 6 6 8 12 17 18 17 17 17 20 21 22 22 23 25 27
6 8 7 6 10 6 7 4 3 4 4 2 2 4 6 6 4 3 5 4 9 5 2 3 1 3 2 1 2 2 2 2 2 5 6 7 8 6 6 10 15 17 18 16 15 16 18 21 22 22 24 21 21 23
8 14 12 9 9 7 6 4 4 2 3 4 3 6 5 5 7 7 6 9 7 4 3 2 4 2 3 3 2 2 4 2 5 7 6 5 5 9 13 15 15 16 16 17 20 21 20 17 17 17 21 23 23 22
12 14 18 15 13 6 3 2 3 3 3 3 5 5 4 7 8 9 10 12 6 7 7 3 2 3 2 3 3 2 4 4 5 6 7 9 14 17 17 16 17 19 19 16 16 15 15 16 17 18 20 23 25 26
11 15 20 16 13 4 3 2 4 3 3 3 5 5 4 4 6 7 10 6 5 4 2 2 4 3 3 2 1 3 4 4 6 12 15 14 13 14 14 14 15 16 16 16 15 16 16 18 19 21 22 25 28 27
11 19 20 19 11 5 3 3 3 3 4 3 6 4 3 5 4 3 3 7 2 3 4 8 9 6 7 9 10 8 10 12 13 14 16 16 13 14 16 16 16 14 14 13 17 21 25 26 24 23 28 28 30 25
13 21 16 15 4 4 3 3 3 5 3 5 6 4 4 3 3 3 3 4 5 10 8 7 7 7 8 9 8 9 10 11 12 13 16 16 17 14 13 13 12 14 17 21 20 25 27 25 24 23 24 24 25 23
21 22 8 5 4 3 2 5 3 2 3 5 5 4 3 3 2 3 3 5 6 7 9 8 7 7 8 8 9 9 9 10 12 13 16 16 15 15 14 13 16 20 23 23 21 23 24 23 23 25 22 23 21 20
17 5 4 4 3 4 5 3 3 3 4 4 3 3 3 3 3 2 3 4 4 4 4 5 5 5 5 6 5 5 7 10 14 16 16 17 16 16 16 17 22 21 22 23 23 23 22 22 20 20 21 20 18 18
6 3 4 4 2 4 3 4 2 2 2 2 3 2 4 4 3 3 3 1 4 5 5 5 3 2 3 5 7 8 10 12 15 19 20 21 23 26 25 23 24 23 22 26 23 22 21 18 16 17 16 16 16 17
4 1 1 3 4 3 4 4 4 4 3 3 3 2 3 3 3 3 3 4 5 7 8 9 8 8 7 9 12 15 17 18 20 22 24 24 30 29 28 28 30 27 21 22 23 19 16 16 15 14 13 14 15 16
4 3 2 3 5 7 5 4 5 3 4 4 4 6 4 4 4 3 4 5 2 5 8 9 11 13 16 18 20 24 25 25 24 26 30 32 34 31 30 30 30 23 22 22 19 15 15 16 15 13 14 13 13 15
4 4 5 5 3 2 4 4 4 5 3 4 7 5 3 3 1 2 2 2 8 10 11 13 14 16 15 16 17 18 21 23 24 24 23 19 17 18 20 16 14 14 13 12 13 16 16 15 14 13 13 14 16 18
4 6 6 4 2 2 2 3 4 4 4 6 3 3 3 2 3 2 5 8 10 11 12 13 12 13 12 13 12 13 16 18 19 19 17 14 15 16 17 17 16 15 14 14 13 13 13 13 14 14 16 17 16 15
3 3 3 2 1 1 1 3 2 4 5 5 3 2 2 2 2 4 5 7 8 9 9 10 11 12 12 13 13 11 12 15 16 16 16 16 18 21 21 20 19 17 15 14 12 12 13 13 13 11 13 12 11 10
3 2 2 3 2 1 2 4 4 5 5 4 7 4 0 3 4 4 4 5 6 8 9 9 9 10 12 13 14 15 15 15 18 17 17 19 20 21 21 20 19 18 17 15 14 13 13 10 9 9 9 10 11 11
2 2 0 0 1 3 3 1 2 3 3 2 1 1 3 3 2 1 3 5 5 7 9 11 12 13 13 12 14 14 18 20 21 23 23 24 23 23 23 22 21 19 17 15 14 13 11 9 9 8 9 10 11 12
1 1 0 2 2 1 1 1 2 2 2 1 1 1 1 1 3 2 2 6 7 8 11 13 15 17 16 15 17 18 20 20 22 23 23 23 24 24 23 21 20 18 16 14 12 12 11 10 10 10 10 10 10 11
Wind_Direction
185 185 190 187 189 191 190 191 194 196 195 197 197 190 186 180 173 170 166 165 136 108 143 148 137 151 167 183 157 138 142 151 126 129 168 204 208 202 223 261 175 187 179 207 217 248 273 120 254 312 300 315 352 0
180 188 185 188 191 191 191 190 191 193 194 196 198 196 192 188 183 180 171 177 163 146 154 173 176 172 162 168 184 172 198 156 179 129 186 169 186 16 224 243 177 251 209 248 196 236 301 308 334 326 320 345 348 341
155 179 188 188 189 191 191 191 190 190 192 194 196 197 197 195 189 188 184 176 161 125 121 154 175 192 190 190 170 183 203 179 182 145 149 172 193 173 174 227 267 277 275 234 273 267 296 307 336 57 27 41 354 344
103 146 172 187 187 191 191 192 192 190 191 192 194 193 195 195 191 185 179 182 167 145 136 184 201 193 202 195 189 182 182 189 154 156 116 143 184 205 213 257 274 270 283 269 263 280 309 32 41 338 328 347 15 346
90 166 134 187 187 191 192 191 195 193 193 192 193 194 192 190 187 188 188 192 193 149 152 133 178 219 213 212 209 208 185 181 171 132 120 196 229 221 225 288 259 254 270 265 264 319 279 169 299 288 39 17 333 323
83 71 161 154 177 195 194 193 192 195 196 194 193 192 192 189 184 155 187 219 209 180 156 132 206 205 213 200 187 195 205 209 202 171 194 238 211 217 193 225 257 271 281 327 285 255 316 217 268 226 83 315 313 316
91 82 95 147 178 186 197 199 198 196 197 196 197 192 190 186 179 184 186 216 199 183 163 107 218 229 192 164 179 189 198 214 209 222 210 218 213 217 210 245 261 267 225 151 146 101 100 258 231 206 282 307 313 313
84 71 79 130 138 178 198 204 205 202 197 195 194 202 203 201 189 198 188 167 178 171 181 138 182 203 174 177 182 182 189 192 213 233 193 218 207 200 247 248 234 187 157 148 161 222 196 156 180 276 304 312 313 313
80 74 72 79 121 198 182 213 209 205 197 196 197 199 202 208 203 213 207 197 175 191 206 163 169 194 167 143 153 154 173 180 216 231 209 188 177 217 236 198 178 172 161 157 157 163 136 169 308 311 313 313 310 311
56 74 61 60 57 29 248 222 214 203 197 196 194 197 204 202 202 213 211 208 214 210 217 191 175 163 177 166 165 137 178 244 225 210 171 215 248 222 207 183 173 174 169 161 187 190 299 312 311 308 306 307 309 310
17 19 38 22 25 357 348 232 204 199 195 195 189 181 167 153 156 180 176 168 190 247 209 188 189 144 173 158 159 201 163 157 236 161 239 225 244 200 175 154 147 150 159 164 156 277 301 302 301 302 301 308 313 311
345 345 29 44 52 46 26 25 181 186 175 184 177 142 148 176 148 147 176 165 203 210 174 157 144 130 139 146 120 166 159 161 232 149 226 246 147 151 162 163 162 161 161 172 256 297 300 300 302 303 303 308 306 306
235 297 79 78 71 67 62 54 160 174 142 140 116 135 155 180 174 197 186 187 187 158 160 157 122 124 122 140 130 167 185 194 176 182 230 330 130 164 168 170 175 180 188 228 301 305 303 300 301 302 303 308 309 310
206 242 129 127 99 145 97 83 124 164 159 90 100 112 302 173 352 352 352 73 94 147 141 130 97 105 124 113 142 178 86 198 210 230 222 144 171 168 168 174 187 209 242 276 300 304 299 307 304 303 304 308 309 313
200 212 186 173 72 166 189 211 223 54 73 82 58 72 69 70 57 89 97 96 114 133 122 106 85 102 83 120 61 122 170 224 223 240 78 141 163 167 168 186 231 261 273 288 295 295 298 303 302 305 308 310 315 314
206 205 204 178 184 148 167 201 193 91 62 52 70 114 100 92 72 60 88 103 128 125 93 65 82 138 91 66 185 205 224 231 103 91 150 150 157 171 191 221 263 279 289 292 293 293 294 299 304 305 306 307 310 313
200 196 194 163 160 158 188 184 101 54 92 80 86 107 97 78 97 120 117 131 153 129 64 73 108 54 104 203 240 223 253 31 125 148 151 161 175 197 242 277 289 298 296 291 288 288 291 299 303 302 306 314 308 303
216 197 180 177 163 126 90 77 75 72 86 108 149 155 160 158 161 163 174 168 155 122 123 103 134 182 215 221 186 193 221 196 168 173 177 189 235 277 284 282 285 287 285 283 287 297 301 306 304 304 304 305 306 310
219 194 180 188 187 178 113 91 98 94 81 104 117 129 137 158 162 171 168 167 157 142 119 124 184 219 219 218 238 233 196 204 218 227 246 274 286 287 285 283 287 289 290 289 289 289 289 285 290 301 307 303 302 308
206 200 181 191 206 111 90 65 88 106 132 135 128 119 105 114 150 157 163 151 131 118 158 216 228 223 222 229 268 264 246 216 264 281 282 285 284 278 276 279 283 286 286 286 285 290 290 290 292 294 295 301 307 311
199 184 183 192 196 89 92 73 65 82 110 114 135 127 87 116 98 97 150 178 160 230 242 242 252 259 260 263 272 262 262 271 272 272 278 285 288 284 283 284 284 280 278 282 293 297 302 298 294 289 299 307 313 307
201 173 156 162 105 104 107 111 108 115 117 132 139 136 128 147 140 135 141 186 236 239 235 253 260 261 257 259 265 265 272 278 280 281 288 291 290 290 286 283 276 276 287 294 294 298 302 299 298 294 300 307 311 314
170 159 124 99 98 102 116 110 102 105 140 153 151 141 144 135 135 159 213 230 247 255 243 253 262 255 254 263 279 291 290 295 298 294 292 286 284 278 273 274 283 288 293 297 298 294 294 296 292 298 301 308 313 316
144 104 90 95 99 117 130 123 134 128 123 166 159 140 138 136 139 182 245 246 247 279 290 292 285 287 283 290 296 295 306 301 302 296 289 286 269 267 275 284 290 284 284 287 291 296 299 298 298 300 301 305 312 312
102 67 104 91 110 133 125 125 114 141 128 155 157 159 162 166 191 208 238 111 40 29 29 27 14 343 325 318 312 314 324 323 319 306 299 294 292 290 287 292 295 290 284 291 297 299 291 290 299 300 300 302 305 313
87 127 140 130 150 137 139 139 163 160 136 160 185 124 151 198 221 230 148 67 57 41 35 28 12 357 335 330 318 312 307 306 305 297 296 292 287 288 293 291 293 292 286 288 287 292 287 293 300 299 300 306 311 315
120 124 114 110 113 122 118 106 135 162 177 180 171 174 184 214 220 124 123 103 64 4 5 346 332 322 314 312 303 301 303 302 298 294 295 297 296 293 290 282 280 274 278 288 288 286 287 294 296 293 298 303 304 306
88 124 134 127 113 121 132 156 170 179 170 174 164 189 206 221 61 97 128 291 330 334 329 322 318 315 318 312 316 315 310 310 311 314 314 322 309 279 283 286 290 291 288 285 280 285 288 291 291 293 296 298 302 304
84 109 118 113 132 149 182 175 191 187 173 173 196 200 151 118 162 182 289 317 322 326 327 328 330 335 339 341 342 340 329 335 339 344 352 346 337 324 327 327 321 313 306 298 291 293 289 290 291 291 293 297 302 304
105 131 104 126 130 161 63 177 165 206 184 196 189 171 170 188 265 299 320 327 334 343 350 355 356 358 1 359 358 4 340 345 354 352 345 337 331 327 326 325 322 317 313 306 297 290 293 298 301 303 302 305 306 304
106 125 136 178 205 157 228 252 249 244 244 226 245 266 185 197 261 300 336 356 5 1 1 359 357 352 350 349 346 341 336 333 336 335 330 324 321 319 319 318 318 317 315 310 307 304 304 304 300 300 301 305 308 307
87 76 50 320 358 323 333 296 256 251 247 229 199 133 124 139 139 273 17 24 14 5 359 357 351 342 336 327 322 319 316 320 320 321 320 319 317 316 314 313 312 311 309 307 304 303 302 298 295 296 299 307 310 310
87 117 171 291 274 245 299 312 253 264 213 173 115 107 115 114 160 212 5 16 11 356 349 344 343 341 338 329 329 320 319 318 318 317 315 316 316 316 314 311 309 307 304 300 297 295 295 297 297 301 306 309 311 314
Height
1438 1445 1451 1457 1462 1468 1472 1477 1481 1485 1489 1492 1495 1498 1500 1501 1503 1504 1505 1506 1508 1510 1514 1516 1517 1520 1521 1523 1528 1532 1536 1539 1543 1549 1552 1549 1551 1540 1541 1535 1546 1552 1559 1562 1558 1558 1551 1533 1535 1539 1537 1534 1536 1535
1439 1445 1451 1456 1462 1466 1471 1475 1479 1484 1488 1492 1495 1497 1499 1501 1503 1504 1507 1507 1508 1511 1514 1514 1516 1517 1519 1521 1524 1528 1529 1531 1533 1538 1547 1547 1546 1549 1547 1543 1533 1540 1538 1541 1543 1534 1527 1531 1533 1535 1535 1534 1535 1535
1437 1444 1450 1456 1461 1466 1470 1474 1478 1483 1487 1490 1493 1497 1499 1501 1502 1504 1506 1508 1510 1512 1516 1517 1518 1518 1519 1520 1522 1527 1529 1530 1532 1533 1539 1543 1547 1543 1550 1542 1534 1531 1531 1533 1537 1530 1529 1530 1532 1533 1534 1533 1534 1534
1438 1441 1448 1455 1460 1465 1469 1474 1478 1481 1485 1489 1493 1496 1499 1501 1502 1504 1506 1508 1510 1512 1513 1516 1515 1517 1518 1520 1522 1524 1525 1527 1530 1533 1535 1539 1542 1535 1535 1532 1530 1531 1528 1527 1527 1526 1528 1530 1530 1532 1533 1533 1532 1533
1445 1446 1448 1453 1459 1464 1468 1473 1477 1481 1485 1488 1492 1495 1498 1500 1502 1504 1506 1507 1509 1514 1513 1515 1515 1516 1517 1519 1521 1523 1525 1527 1529 1532 1534 1536 1534 1535 1536 1536 1529 1527 1524 1525 1526 1528 1529 1531 1530 1532 1532 1533 1533 1532
1450 1451 1451 1454 1457 1462 1467 1472 1476 1480 1484 1488 1492 1495 1498 1500 1502 1505 1508 1509 1509 1510 1513 1515 1516 1515 1516 1518 1521 1522 1525 1526 1528 1529 1531 1530 1529 1533 1536 1530 1521 1522 1522 1523 1523 1525 1525 1527 1530 1530 1531 1531 1531 1530
1453 1454 1454 1455 1456 1460 1465 1470 1475 1479 1484 1487 1491 1495 1497 1500 1502 1505 1507 1506 1506 1510 1511 1514 1514 1514 1515 1518 1520 1522 1522 1524 1527 1527 1527 1528 1528 1530 1528 1522 1518 1520 1522 1523 1523 1523 1527 1527 1527 1529 1530 1530 1529 1528
1455 1455 1455 1457 1459 1461 1463 1467 1472 1478 1483 1487 1491 1494 1497 1499 1501 1504 1505 1505 1506 1509 1510 1513 1513 1515 1514 1516 1519 1519 1521 1523 1524 1523 1524 1524 1524 1524 1520 1513 1515 1518 1521 1521 1522 1523 1525 1526 1528 1528 1528 1527 1526 1524
1457 1457 1457 1457 1458 1460 1461 1464 1468 1474 1480 1485 1490 1493 1495 1497 1499 1501 1504 1506 1507 1510 1508 1509 1510 1513 1513 1515 1516 1518 1520 1522 1523 1521 1521 1521 1518 1514 1509 1510 1513 1516 1519 1521 1524 1525 1524 1525 1526 1526 1525 1524 1522 1519
1459 1459 1458 1458 1459 1460 1460 1462 1465 1470 1476 1482 1488 1490 1490 1491 1496 1501 1503 1505 1505 1503 1503 1503 1505 1508 1511 1514 1515 1519 1519 1519 1518 1518 1518 1517 1510 1508 1508 1509 1511 1513 1517 1520 1523 1523 1523 1524 1524 1524 1524 1522 1520 1516
1459 1459 1460 1460 1459 1459 1458 1460 1462 1466 1471 1473 1477 1481 1484 1487 1493 1495 1495 1498 1499 1498 1495 1496 1499 1502 1507 1510 1512 1515 1515 1517 1514 1513 1514 1507 1500 1502 1506 1508 1511 1513 1517 1520 1521 1522 1522 1522 1522 1520 1517 1514 1513 1512
1460 1461 1460 1460 1460 1460 1460 1458 1460 1463 1465 1468 1471 1477 1483 1484 1485 1489 1490 1494 1492 1489 1491 1493 1495 1498 1503 1506 1509 1512 1512 1515 1508 1512 1514 1504 1496 1502 1506 1509 1512 1514 1516 1518 1519 1520 1519 1519 1518 1515 1514 1510 1506 1504
1461 1462 1462 1462 1463 1463 1462 1462 1464 1465 1466 1469 1472 1476 1479 1481 1481 1480 1478 1480 1482 1483 1486 1491 1495 1496 1500 1504 1506 1507 1507 1507 1511 1512 1502 1492 1499 1503 1506 1509 1512 1514 1516 1516 1516 1517 1515 1513 1511 1510 1508 1505 1501 1498
1463 1464 1463 1465 1465 1465 1465 1467 1469 1469 1470 1471 1473 1476 1477 1477 1477 1477 1475 1476 1482 1483 1485 1489 1494 1496 1499 1503 1504 1501 1508 1508 1506 1504 1497 1497 1501 1503 1506 1508 1512 1513 1514 1514 1513 1512 1509 1508 1505 1503 1503 1500 1496 1492
1463 1464 1465 1467 1467 1467 1467 1468 1470 1472 1472 1475 1476 1476 1479 1481 1482 1483 1481 1482 1484 1485 1487 1491 1495 1497 1500 1502 1502 1505 1506 1501 1496 1491 1496 1499 1502 1505 1507 1510 1512 1512 1512 1510 1509 1507 1505 1503 1501 1497 1496 1493 1491 1487
1464 1466 1467 1469 1469 1468 1470 1471 1473 1474 1475 1478 1480 1481 1483 1483 1484 1484 1485 1485 1487 1488 1490 1492 1496 1498 1499 1499 1501 1498 1497 1492 1491 1497 1499 1501 1504 1506 1508 1509 1510 1510 1508 1506 1504 1502 1500 1498 1495 1492 1490 1488 1484 1480
1462 1464 1466 1468 1469 1471 1472 1473 1474 1475 1478 1481 1483 1482 1483 1484 1485 1487 1488 1489 1490 1492 1495 1497 1498 1500 1505 1501 1501 1498 1497 1498 1498 1500 1501 1503 1505 1507 1508 1507 1506 1504 1502 1501 1500 1498 1496 1493 1490 1487 1484 1481 1479 1475
1463 1465 1467 1469 1471 1473 1474 1475 1477 1479 1481 1484 1485 1484 1485 1487 1487 1489 1491 1492 1495 1495 1497 1499 1501 1503 1501 1498 1493 1498 1499 1500 1500 1501 1502 1503 1505 1505 1504 1502 1501 1500 1498 1496 1494 1492 1489 1487 1485 1483 1480 1477 1473 1469
1462 1464 1467 1471 1473 1475 1476 1478 1478 1479 1483 1484 1485 1486 1486 1486 1488 1490 1492 1494 1496 1496 1497 1499 1500 1498 1497 1497 1498 1498 1499 1500 1500 1501 1501 1502 1501 1499 1498 1497 1495 1493 1491 1489 1487 1486 1485 1483 1481 1478 1475 1471 1466 1461
1461 1462 1466 1469 1472 1472 1475 1477 1478 1480 1482 1484 1485 1488 1488 1488 1489 1492 1494 1497 1498 1498 1499 1498 1495 1494 1495 1496 1497 1498 1498 1499 1499 1499 1499 1498 1496 1495 1493 1492 1490 1488 1486 1484 1482 1481 1479 1477 1475 1472 1468 1464 1459 1455
1461 1461 1464 1468 1471 1474 1476 1478 1479 1481 1482 1484 1487 1488 1489 1490 1492 1493 1496 1497 1499 1498 1496 1494 1493 1493 1494 1494 1495 1496 1496 1496 1496 1496 1495 1493 1492 1490 1488 1486 1484 1482 1481 1479 1477 1475 1473 1470 1467 1463 1460 1456 1452 1448
1459 1461 1464 1468 1471 1475 1478 1479 1481 1482 1485 1486 1488 1489 1491 1492 1494 1495 1496 1498 1497 1492 1493 1492 1492 1491 1492 1493 1492 1492 1492 1492 1491 1490 1489 1488 1485 1484 1482 1481 1479 1477 1475 1473 1471 1468 1465 1462 1459 1456 1453 1450 1446 1442
1459 1461 1465 1467 1472 1476 1481 1479 1482 1483 1484 1486 1488 1488 1490 1492 1494 1495 1496 1494 1491 1489 1489 1489 1489 1488 1489 1489 1489 1489 1488 1488 1487 1486 1485 1483 1481 1479 1477 1475 1473 1471 1468 1466 1465 1462 1459 1456 1453 1450 1447 1444 1441 1438
1459 1461 1464 1467 1472 1476 1479 1481 1482 1483 1484 1485 1485 1487 1489 1491 1494 1495 1492 1488 1487 1488 1487 1487 1486 1487 1487 1487 1487 1488 1487 1486 1485 1483 1481 1478 1475 1473 1472 1469 1467 1464 1462 1459 1457 1455 1452 1449 1447 1445 1442 1439 1436 1434
1459 1466 1467 1470 1472 1475 1476 1478 1481 1481 1482 1484 1486 1487 1490 1492 1491 1490 1488 1485 1487 1486 1485 1485 1485 1486 1486 1486 1486 1486 1485 1483 1482 1480 1478 1476 1472 1468 1464 1462 1460 1457 1455 1453 1450 1448 1446 1443 1441 1439 1436 1434 1432 1429
1460 1466 1467 1468 1471 1471 1473 1476 1479 1481 1483 1485 1486 1488 1489 1488 1487 1483 1482 1487 1487 1487 1485 1485 1485 1486 1486 1486 1485 1484 1482 1479 1475 1472 1469 1468 1464 1461 1456 1453 1450 1448 1447 1445 1443 1441 1439 1437 1435 1433 1432 1430 1428 1426
1459 1464 1466 1466 1468 1470 1474 1477 1479 1480 1481 1481 1482 1485 1486 1483 1479 1481 1486 1485 1486 1485 1485 1485 1484 1483 1482 1480 1477 1475 1472 1470 1467 1464 1460 1457 1455 1453 1450 1445 1443 1441 1437 1437 1436 1435 1434 1432 1430 1429 1428 1426 1425 1422
1460 1463 1464 1467 1468 1470 1472 1474 1476 1476 1476 1478 1480 1480 1479 1477 1477 1484 1484 1483 1483 1483 1482 1481 1479 1477 1475 1473 1471 1468 1465 1461 1458 1455 1452 1451 1448 1443 1441 1439 1437 1434 1433 1432 1431 1430 1429 1427 1426 1425 1424 1422 1420 1417
1462 1464 1466 1469 1470 1470 1470 1471 1472 1473 1475 1476 1476 1475 1477 1479 1480 1481 1480 1480 1480 1479 1478 1477 1474 1473 1471 1469 1467 1464 1461 1457 1454 1450 1449 1448 1445 1441 1439 1437 1435 1433 1431 1429 1427 1426 1424 1423 1421 1420 1419 1417 1415 1413
1465 1466 1468 1469 1469 1469 1471 1472 1472 1472 1474 1475 1475 1476 1476 1477 1477 1477 1478 1477 1477 1476 1475 1474 1472 1471 1469 1467 1465 1463 1461 1457 1454 1452 1449 1447 1444 1441 1438 1435 1433 1430 1428 1426 1424 1422 1420 1418 1417 1416 1414 1412 1411 1409
1466 1467 1469 1470 1470 1471 1470 1471 1471 1472 1472 1473 1472 1474 1474 1475 1475 1475 1475 1475 1475 1474 1473 1472 1471 1470 1467 1465 1463 1460 1459 1456 1453 1451 1448 1446 1443 1439 1436 1433 1430 1428 1425 1423 1420 1418 1416 1415 1414 1412 1410 1409 1408 1406
1467 1468 1468 1468 1469 1469 1469 1470 1470 1470 1470 1470 1471 1471 1472 1474 1476 1477 1475 1474 1474 1473 1472 1470 1469 1467 1465 1463 1461 1459 1456 1453 1450 1447 1444 1441 1438 1435 1432 1430 1427 1424 1422 1419 1417 1415 1413 1412 1411 1409 1407 1405 1404 1403
1468 1469 1469 1470 1469 1469 1470 1470 1469 1468 1469 1469 1470 1471 1472 1473 1475 1476 1474 1473 1473 1471 1470 1468 1466 1464 1462 1460 1458 1456 1452 1449 1446 1443 1440 1437 1434 1431 1427 1424 1422 1420 1418 1416 1414 1412 1410 1409 1408 1406 1405 1403 1402 1400